Startpagina
METAR-TAF:

METAR-TAF

Vliegvelden :

Schaffen

Diest, België

breedte: 51-00N, lengte: 005-04E, hoogte: 30 m

Actueel weer

Dit bericht is 46 minuten geleden gemaakt, om 07:55 UTC
Wind 4 kt uit het zuiden
Temperatuur 7°C
Vochtigheid 93%
Druk 1022 hPa
Zicht: 5000 m

METAR: EBDT 180755Z AUTO 17004KT 5000 FEW250/// 07/06 Q1022 WHT

Tijdstip: 10:41 (08:41 UTC)


TAF: ontbreekt

Waarnemingen en weersverwachtingen van meer dan 4000 vliegvelden (METAR en TAF).

De beschikbare stations zijn de gele en rode punten op de kaart.

Ga met uw muis naar het station om de naam te zien.

Klik dan om waarnemingen en weersverwachtingen te zien.

kaart wijzigen: klik op de groene knoppen met een zwart kruis om in te zoomen, op de groene knop met een streepje om uit te zoomen of op de groene pijlen voor aangrenzende kaarten.


METAR-TAF: